User: anonymous   Login
Location: Unspecified
(0.0000°N, 0.0000°E)
Time: 11:08:43
(UTC+00:00)
Language:

RS-44 - Orbit

View from above orbital plane
View from above orbital plane
View from above satellite
View from above satellite

Ground track
Ground track

The orbit data is extracted from the following two-line orbital elements,

1 44909U 19096E   21342.73958253  .00000010  00000-0 -85162-5 0  9994
2 44909  82.5214 357.0062 0218213  45.8680 316.0140 12.79711404 91114
Epoch (UTC): 08 December 2021 17:44:59
Eccentricity: 0.0218213
inclination: 82.5214°
perigee height: 1174 km
apogee height: 1511 km
right ascension of ascending node: 357.0062°
argument of perigee: 45.8680°
revolutions per day: 12.79711404
mean anomaly at epoch: 316.0140°
orbit number at epoch: 9111

The dashed part of the orbit path shows where the satellite is in the earth's shadow,  

DLR